This is the latest recevied weather packets stored in our database for station/object KC9TVS-13. If no packets are shown the sender has not sent any weather packets the latest 10 day(s).
| Time | Temp. | Humidity | Pressure | Rain* | Wind** | Luminosity | Snow |
|---|---|---|---|---|---|---|---|
| 1788558214 | 29.44° C | 84% | 1013.4 hPa | 0 mm | - | 311 W/m² | - |
| 1788557914 | 29.44° C | 80% | 1013.3 hPa | 0 mm | - | 362 W/m² | - |
| 1788557615 | 28.89° C | 80% | 1013.4 hPa | 0 mm | - | 374 W/m² | - |
| 1788557315 | 28.89° C | 81% | 1013.4 hPa | 0 mm | - | 371 W/m² | - |
| 1788557014 | 28.89° C | 82% | 1013.3 hPa | 0 mm | - | 325 W/m² | - |
| 1788556714 | 28.33° C | 80% | 1013.4 hPa | 0 mm | - | 313 W/m² | - |
| 1788556414 | 28.33° C | 85% | 1013.4 hPa | 0 mm | - | 267 W/m² | - |
| 1788556116 | 28.33° C | 82% | 1013.3 hPa | 0 mm | - | 244 W/m² | - |
| 1788555818 | 28.33° C | 83% | 1013.3 hPa | 0 mm | - | 232 W/m² | - |
| 1788555512 | 28.33° C | 84% | 1013.2 hPa | 0 mm | - | 236 W/m² | - |
| 1788555212 | 28.33° C | 84% | 1013.2 hPa | 0 mm | - | 246 W/m² | - |
| 1788554912 | 28.33° C | 86% | 1013.2 hPa | 0 mm | - | 334 W/m² | - |
| 1788554610 | 27.78° C | 86% | 1013.2 hPa | 0.25 mm | - | 373 W/m² | - |
| 1788554309 | 27.78° C | 89% | 1013.4 hPa | 0.51 mm | - | 548 W/m² | - |
| 1788554009 | 27.22° C | 90% | 1013.4 hPa | 0.51 mm | - | 715 W/m² | - |
| 1788553709 | 26.67° C | 90% | 1013.3 hPa | 0.51 mm | - | 524 W/m² | - |
| 1788553410 | 26.11° C | 89% | 1013.3 hPa | 0.51 mm | - | 392 W/m² | - |
| 1788553109 | 26.11° C | 88% | 1013.3 hPa | 0.51 mm | - | 276 W/m² | - |
| 1788552810 | 26.11° C | 88% | 1013.5 hPa | 0.51 mm | - | 209 W/m² | - |
| 1788552509 | 26.11° C | 88% | 1013.5 hPa | 0.51 mm | - | 171 W/m² | - |
| 1788552207 | 26.11° C | 88% | 1013.5 hPa | 0.51 mm | - | 137 W/m² | - |
| 1788551907 | 26.11° C | 88% | 1013.5 hPa | 0.51 mm | - | 111 W/m² | - |
| 1788551609 | 26.11° C | 88% | 1013.7 hPa | 0.51 mm | - | 93 W/m² | - |
| 1788551324 | 26.67° C | 88% | 1013.8 hPa | 0.51 mm | - | 83 W/m² | - |
| 1788551009 | 26.67° C | 87% | 1013.9 hPa | 0.25 mm | - | 76 W/m² | - |
* Rain latest hour (hover to see other rain measurements)
** Current wind speed in m/s (hover to see current wind gust speed)